sat.trackr.live / text

‹ back to catalog

BLACKCAT

NORAD 67369 · 2026-004G

PAYLOAD ACTIVE UNKNOWN

§ Identity

Operator
Country
US
Launch date
2026-01-11
Launch site
AFWTR
Launch vehicle
Mass (kg)
RCS (m²)

External: N2YO · Heavens-Above · Gunter

§ Orbital elements

Epoch: 2026-09-20T12:32:07.603872Z

Period
96.78 min
Inclination
97.8053°
Eccentricity
0.0006885
Mean motion
14.87874879 rev/d
Perigee alt
599.8 km
Apogee alt
609.4 km
Semi-major
6,982.7 km
B*
6.8180e-5
RAAN
260.4010°
Arg perigee
178.5205°
Mean anomaly
181.6033°
Rev number
3,746

§ Raw data

BLACKCAT1 67369U 26004G   26263.52231023  .00000570  00000+0  68180-4 0  99982 67369  97.8053 260.4010 0006885 178.5205 181.6033 14.87874879 37468

JSON: /api/v1/satellites/67369 · /tle

For live sub-satellite position, see the globe view (requires WebGL).

§ Visibility from observer

Set your observer location to see the next 7 days of passes ≥ 10°. The values pass through the URL so the page stays shareable.

No JS? Fill the form by hand. The geolocation button needs JavaScript.

§ Radio — SatNOGS DB

ModeDescriptionDownlinkUplink
GFSK BlackCAT Transmitter: 2GFSK, 2400 baud, TX power 3.01 dbW, min antenna gain -4 dbi 401.050 MHz

1 transmitter · refreshed weekly from db.satnogs.org